908  
ASUS43 KDMX 251206  
RWRIA  
 
WEATHER ROUNDUP FOR IOWA  
NATIONAL WEATHER SERVICE DES MOINES IA  
700 AM CDT TUE JUL 25 2017  
 
NOTE: "FAIR" INDICATES FEW OR NO CLOUDS BELOW 12,000 FEET WITH NO  
SIGNIFICANT WEATHER AND/OR S TO VISIBILITY
.  
 
* - THESE STATIONS ARE NOT NWS STATIONS...THUS NOT UNDER NWS  
QUALITY CONTROL. THEY ALSO DO NOT REPORT WEATHER SUCH  
AS PRECIPITATION OR FOG.
 
 
IAZ001>003-012>014-020>022-031>034-043>046-251300-  
NORTHWEST IOWA  
 
CITY SKY/WX TMP DP RH WIND PRES REMARKS
 
CARROLL * CLEAR 66 66 100 SE8 30.05R  
CHEROKEE * CLEAR 68 65 90 S9 30.00S  
DENISON * CLEAR 70 64 83 VRB6 30.05R  
ORANGE CITY * CLEAR 70 64 83 S8 29.98S  
SHELDON * PTCLDY 68 64 88 SE14G22 29.96S  
SIOUX CITY CLEAR 70 67 90 SE10 29.97R  
6HR MIN TEMP: 69; 6HR MAX TEMP: 74;  
 
SPENCER CLEAR 68 64 87 SE15 30.01R  
6HR MIN TEMP: 67; 6HR MAX TEMP: 70;  
 
STORM LAKE * CLEAR 64 64 100 SE10 30.03R  

 
 
IAZ055>058-069>071-079>083-090>094-251300-  
SOUTHWEST IOWA  
 
CITY SKY/WX TMP DP RH WIND PRES REMARKS
 
ATLANTIC * CLEAR 70 64 83 S10 30.03S  
AUDUBON * CLEAR 68 63 83 SE6 30.06R  
CLARINDA * CLEAR 70 66 88 S6 30.06S  
COUNCIL BLFS * CLEAR 70 68 94 S10 30.02R  
CRESTON * CLEAR 68 66 94 SE12 30.08R  
HARLAN * CLEAR 70 66 88 S8 30.06R  
LAMONI CLEAR 67 66 97 SE7 30.08S  
6HR MIN TEMP: 67; 6HR MAX TEMP: 72;  
 
RED OAK * CLEAR 70 64 83 SE7 30.03S  
SHENANDOAH * N/A 72 66 83 SE8G15 30.02S  

 
 
IAZ047>049-059>061-072>074-084-251300-  
CENTRAL IOWA  
 
CITY SKY/WX TMP DP RH WIND PRES REMARKS
 
AMES CLEAR 65 65 100 S8 30.09R FOG  
6HR MIN TEMP: 65; 6HR MAX TEMP: 67;  
 
ANKENY * CLEAR 66 64 94 S5 30.10R  
BOONE * CLEAR 66 64 94 SE9 30.07S FOG  
CHARITON * CLEAR 66 64 94 SE8 30.09R  
DES MOINES PTCLDY 68 65 90 SE6 30.08R  
6HR MIN TEMP: 67; 6HR MAX TEMP: 71;  
 
GRINNELL* CLEAR 64 62 91 SE8 30.11S  
KNOXVILLE * CLEAR 66 63 88 SE7 30.09R  
MARSHALLTOWN CLEAR 64 63 96 SE9 30.10R  
6HR MIN TEMP: 63; 6HR MAX TEMP: 66;  
 
NEWTON * CLEAR 64 63 94 SE7 30.11R FOG  
PELLA * N/A 65 63 91 SE6 30.11R  

 
 
IAZ004>006-015-016-023>025-035-036-251300-  
NORTH CENTRAL IOWA  
 
CITY SKY/WX TMP DP RH WIND PRES REMARKS
 
ALGONA * CLOUDY 66 66 100 S13G22 30.04S  
CLARION * MOCLDY 66 66 100 SE12 30.07S  
ESTHERVILLE CLOUDY 65 65 100 S15G24 30.01R  
6HR MIN TEMP: 64; 6HR MAX TEMP: 66;  
 
FORT DODGE * PTCLDY 66 63 88 S9 30.07R  
MASON CITY PTCLDY 63 61 93 S10 30.09S  
6HR MIN TEMP: 63; 6HR MAX TEMP: 64;  
 
FOREST CITY * N/A 64 63 94 S10G16 30.07S  
WEBSTER CITY * PTCLDY 66 64 94 SE9G17 30.06R FOG  
IOWA FALLS * N/A 64 62 93 SE8 30.11R  

 
 
IAZ007>011-017>019-026>030-037>042-050>054-066-251300-  
NORTHEAST IOWA  
 
CITY SKY/WX TMP DP RH WIND PRES REMARKS
 
CHARLES CITY * SUNNY 63 63 100 S10 30.11S  
DECORAH * MOSUNNY 61 59 94 SE8G15 30.11F  
DUBUQUE SUNNY 60 59 96 S9 30.16R FOG  
6HR MIN TEMP: 59; 6HR MAX TEMP: 64;  
 
MONTICELLO * SUNNY 63 59 88 SE7 30.14R  
OELWEIN * N/A N/A N/A N/A MISG N/A  

 
 
IAZ064-065-067-068-078-251300-  
EAST CENTRAL IOWA  
 
CITY SKY/WX TMP DP RH WIND PRES REMARKS
 
DAVENPORT SUNNY 62 60 93 SE7 30.16R  
6HR MIN TEMP: 59; 6HR MAX TEMP: 63;  
 
MT. PLEASANT * SUNNY 64 63 96 SE7 30.13R  
MUSCATINE * SUNNY 64 61 88 SE6 30.13S  
QUAD CITIES SUNNY 62 59 90 E3 30.14R  
6HR MIN TEMP: 59; 6HR MAX TEMP: 64;  
 

 
 
IAZ062-063-075>077-085>089-095>099-251300-  
SOUTHEAST IOWA  
 
CITY SKY/WX TMP DP RH WIND PRES REMARKS
 
BURLINGTON SUNNY 65 62 90 E6 30.13R  
6HR MIN TEMP: 64; 6HR MAX TEMP: 68;  
 
FAIRFIELD * SUNNY 64 61 88 SE6 30.12R  
FORT MADISON * SUNNY 64 63 94 E7 30.13S  
KEOKUK * SUNNY 66 63 88 SE9 30.11F  
OSKALOOSA * N/A 62 61 96 SE7 30.11R FOG  
CENTERVILLE * N/A 64 64 100 CALM 30.12R  
OTTUMWA CLEAR 65 64 97 SE8 30.11R  
6HR MIN TEMP: 63; 6HR MAX TEMP: 66;  
 
WASHINGTON * SUNNY 63 63 100 VRB3 30.14R FOG  

 
 
ABBREVIATIONS USED IN REMARKS  
TC - TEMPERATURES IN CELSIUS  
WCI - WIND CHILL INDEX  
HX - HEAT INDEX  
VSB - VISIBILITY  

 
 
 
 
CLICK HERE TO GO TO PREVIOUS BULLETINS.

The Nexlab IA Page Main Text Page